| time (UTC) | temp F | wind direction | speed MPH | gust MPH | rain 1hr in | rain 24hr in | rain mn in | humidity % | barometer mb |
| 20260504234602 | 68 | 360 | 7.0 | 18.0 | 0.00 | 0.00 | 0.00 | 60 | 1012.6 |
| 20260504233057 | 69 | 360 | 8.0 | 16.0 | 0.00 | 0.00 | 0.00 | 58 | 1012.4 |
| 20260504231601 | 70 | 171 | 11.0 | 21.0 | 0.00 | 0.00 | 0.00 | 54 | 1012.2 |
| 20260504230057 | 71 | 190 | 8.0 | 23.0 | 0.00 | 0.00 | 0.00 | 51 | 1012.1 |
| 20260504224551 | 74 | 360 | 9.0 | 22.0 | 0.00 | 0.00 | 0.00 | 46 | 1012.2 |
| 20260504223054 | 75 | 221 | 8.0 | 20.0 | 0.00 | 0.00 | 0.00 | 35 | 1012.0 |
| 20260504221558 | 76 | 193 | 10.0 | 19.0 | 0.00 | 0.00 | 0.00 | 34 | 1012.1 |
| 20260504220054 | 76 | 200 | 10.0 | 21.0 | 0.00 | 0.00 | 0.00 | 33 | 1012.1 |
| 20260504214551 | 77 | 192 | 12.0 | 21.0 | 0.00 | 0.00 | 0.00 | 32 | 1012.3 |
| 20260504213053 | 77 | 254 | 12.0 | 26.0 | 0.00 | 0.00 | 0.00 | 32 | 1012.4 |
| 20260504211553 | 77 | 219 | 11.0 | 17.0 | 0.00 | 0.00 | 0.00 | 31 | 1012.3 |
| 20260504210108 | 77 | 211 | 9.0 | 20.0 | 0.00 | 0.00 | 0.00 | 32 | 1012.3 |
| 20260504204603 | 77 | 232 | 9.0 | 23.0 | 0.00 | 0.00 | 0.00 | 32 | 1012.3 |
| 20260504203054 | 78 | 211 | 6.0 | 18.0 | 0.00 | 0.00 | 0.00 | 32 | 1012.4 |
| 20260504201601 | 79 | 194 | 7.0 | 17.0 | 0.00 | 0.00 | 0.00 | 31 | 1012.6 |
| 20260504194606 | 79 | 181 | 8.0 | 19.0 | 0.00 | 0.00 | 0.00 | 31 | 1012.7 |
| 20260504193100 | 79 | 218 | 8.0 | 17.0 | 0.00 | 0.00 | 0.00 | 30 | 1012.7 |
| 20260504191554 | 81 | 229 | 6.0 | 15.0 | 0.00 | 0.00 | 0.00 | 29 | 1013.1 |
| 20260504190114 | 79 | 225 | 5.0 | 17.0 | 0.00 | 0.00 | 0.00 | 30 | 1013.3 |
| 20260504184558 | 79 | 201 | 9.0 | 14.0 | 0.00 | 0.00 | 0.00 | 30 | 1013.4 |
| 20260504183058 | 79 | 233 | 4.0 | 15.0 | 0.00 | 0.00 | 0.00 | 30 | 1013.5 |
| 20260504181557 | 78 | 249 | 8.0 | 15.0 | 0.00 | 0.00 | 0.00 | 30 | 1013.7 |
| 20260504180142 | 77 | 235 | 3.0 | 15.0 | 0.00 | 0.00 | 0.00 | 31 | 1013.7 |
| 20260504174553 | 77 | 224 | 7.0 | 17.0 | 0.00 | 0.00 | 0.00 | 31 | 1013.8 |
| 20260504173100 | 77 | 221 | 5.0 | 12.0 | 0.00 | 0.00 | 0.00 | 32 | 1013.9 |
| 20260504171553 | 76 | 241 | 8.0 | 15.0 | 0.00 | 0.00 | 0.00 | 32 | 1014.2 |
| 20260504140113 | 65 | 192 | 6.0 | 18.0 | 0.00 | 0.00 | 0.00 | 55 | 1016.0 |
| 20260504120111 | 55 | 360 | 7.0 | 14.0 | 0.00 | 0.00 | 0.00 | 73 | 1017.0 |
| 20260504081555 | 51 | 186 | 9.0 | 18.0 | 0.00 | 0.00 | 0.00 | 76 | 1017.3 |
| 20260504050120 | 50 | 360 | 8.0 | 12.0 | 0.00 | 0.00 | 0.00 | 60 | 1017.4 |
| 20260504044552 | 50 | 360 | 8.0 | 12.0 | 0.00 | 0.00 | 0.00 | 60 | 1017.2 |
| 20260504043059 | 50 | 360 | 8.0 | 14.0 | 0.00 | 0.00 | 0.00 | 59 | 1017.3 |
| 20260504041549 | 49 | 360 | 6.0 | 11.0 | 0.00 | 0.00 | 0.00 | 62 | 1017.0 |
| 20260504040103 | 49 | 360 | 7.0 | 13.0 | 0.00 | 0.00 | 0.00 | 59 | 1017.1 |
| 20260504034552 | 49 | 360 | 5.0 | 10.0 | 0.00 | 0.00 | 0.00 | 58 | 1017.0 |
| 20260504033051 | 49 | 360 | 4.0 | 10.0 | 0.00 | 0.00 | 0.00 | 58 | 1016.9 |
| 20260504031623 | 50 | 360 | 6.0 | 10.0 | 0.00 | 0.00 | 0.00 | 57 | 1016.7 |
| 20260504030054 | 50 | 360 | 5.0 | 9.0 | 0.00 | 0.00 | 0.00 | 56 | 1016.8 |
| 20260504024556 | 50 | 18 | 5.0 | 10.0 | 0.00 | 0.00 | 0.00 | 56 | 1016.8 |
| 20260504023053 | 50 | 360 | 4.0 | 9.0 | 0.00 | 0.00 | 0.00 | 55 | 1016.8 |
| 20260504021554 | 51 | 16 | 5.0 | 9.0 | 0.00 | 0.00 | 0.00 | 55 | 1016.8 |
| 20260504020047 | 51 | 360 | 4.0 | 8.0 | 0.00 | 0.00 | 0.00 | 53 | 1016.7 |
| 20260504014549 | 52 | 360 | 3.0 | 6.0 | 0.00 | 0.00 | 0.00 | 52 | 1016.6 |
| 20260504013054 | 52 | 18 | 3.0 | 8.0 | 0.00 | 0.00 | 0.00 | 51 | 1016.3 |
| 20260504011556 | 53 | 360 | 3.0 | 5.0 | 0.00 | 0.00 | 0.00 | 50 | 1016.3 |
| 20260504010058 | 53 | 360 | 2.0 | 5.0 | 0.00 | 0.00 | 0.00 | 49 | 1016.3 |
| 20260504004555 | 54 | 360 | 3.0 | 6.0 | 0.00 | 0.00 | 0.00 | 48 | 1016.2 |
| 20260504003051 | 55 | 17 | 4.0 | 5.0 | 0.00 | 0.00 | 0.00 | 46 | 1015.8 |
| 20260504001608 | 56 | 16 | 2.0 | 5.0 | 0.00 | 0.00 | 0.00 | 44 | 1015.4 |
| 20260504000055 | 57 | 360 | 1.0 | 5.0 | 0.00 | 0.00 | 0.00 | 43 | 1015.2 |